When you browse on this site, cookies collect data to enhance your experience and personalize the content and advertising you see.
Visit our Privacy Policy to learn more. By continuing to use the site, you agree to this use of cookies and data.
  • In Latvia
  • List of Countries
  • For 7 days
  • Water Temperature
  • Weather Map
  • Weather Widgets
  • user-avatar
    Login

    Hourly Weather Levinka

    Today, 18 November, Monday

    Time Temperature Precipitation Wind Pressure Humidity
    00:00 +1°C° 0 mm 2 mps 752 mmHg 95%
    01:00 +1°C° 0 mm 2 mps 752 mmHg 94%
    02:00 +1°C° 0 mm 2 mps 752 mmHg 93%
    03:00 +1°C° 0 mm 2 mps 752 mmHg 94%
    04:00 +1°C° 0 mm 2 mps 752 mmHg 93%
    05:00 +1°C° 0 mm 2 mps 752 mmHg 93%
    06:00 +2°C° 0 mm 1 mps 751 mmHg 93%
    07:00 +2°C° 0 mm 1 mps 751 mmHg 92%
    08:00 +2°C° 0 mm 1 mps 751 mmHg 91%
    09:00 +3°C° 0 mm 1 mps 752 mmHg 90%
    10:00 +2°C° 0 mm 2 mps 752 mmHg 88%
    11:00 +2°C° 0 mm 2 mps 751 mmHg 86%
    12:00 +2°C° 0 mm 2 mps 751 mmHg 83%
    13:00 +3°C° 0 mm 2 mps 751 mmHg 83%
    14:00 +3°C° 0 mm 2 mps 751 mmHg 82%
    15:00 +4°C° 0 mm 1 mps 751 mmHg 81%
    16:00 +4°C° 0 mm 1 mps 751 mmHg 83%
    17:00 +4°C° 0 mm 1 mps 751 mmHg 84%
    18:00 +3°C° 0 mm 1 mps 751 mmHg 86%
    19:00 +3°C° 0 mm 1 mps 751 mmHg 86%
    20:00 +3°C° 0 mm 1 mps 751 mmHg 87%
    21:00 +2°C° 0 mm 2 mps 751 mmHg 87%
    22:00 +2°C° 0 mm 2 mps 751 mmHg 88%
    23:00 +2°C° 0 mm 2 mps 751 mmHg 90%

    Tomorrow, 19 November, Tuesday

    Time Temperature Precipitation Wind Pressure Humidity
    00:00 +2°C° 0 mm 2 mps 751 mmHg 91%
    01:00 +2°C° 0 mm 1 mps 751 mmHg 92%
    02:00 +2°C° 0 mm 1 mps 752 mmHg 92%
    03:00 +2°C° 0 mm 1 mps 752 mmHg 93%
    04:00 +2°C° 0 mm 1 mps 752 mmHg 93%
    05:00 +2°C° 0 mm 1 mps 751 mmHg 94%
    06:00 -1°C° 0 mm 2 mps 751 mmHg 94%
    07:00 -1°C° 0 mm 2 mps 751 mmHg 94%
    08:00 -1°C° 0 mm 2 mps 751 mmHg 94%
    09:00 -1°C° 0 mm 2 mps 752 mmHg 94%
    10:00 +1°C° 0 mm 2 mps 752 mmHg 91%
    11:00 +2°C° 0 mm 2 mps 752 mmHg 87%
    12:00 +3°C° 0 mm 2 mps 752 mmHg 84%
    13:00 +3°C° 0 mm 2 mps 752 mmHg 84%
    14:00 +3°C° 0 mm 2 mps 752 mmHg 84%
    15:00 +3°C° 0 mm 2 mps 752 mmHg 84%
    16:00 +3°C° 0 mm 2 mps 752 mmHg 87%
    17:00 +2°C° 0 mm 2 mps 752 mmHg 90%
    18:00 +2°C° 0 mm 2 mps 752 mmHg 93%
    19:00 +2°C° 0 mm 2 mps 752 mmHg 93%
    20:00 +1°C° 0 mm 3 mps 752 mmHg 94%
    21:00 +2°C° 0 mm 3 mps 753 mmHg 94%
    22:00 +2°C° 0 mm 3 mps 753 mmHg 94%
    23:00 +2°C° 0 mm 3 mps 753 mmHg 94%

    Day after tomorrow, 20 November, Wednesday

    Time Temperature Precipitation Wind Pressure Humidity
    00:00 +2°C° 0 mm 3 mps 753 mmHg 93%
    01:00 +1°C° 0 mm 4 mps 753 mmHg 92%
    02:00 +1°C° 0 mm 4 mps 754 mmHg 91%
    03:00 +1°C° 0 mm 4 mps 754 mmHg 90%
    04:00 +1°C° 0 mm 4 mps 754 mmHg 88%
    05:00 +1°C° 0 mm 4 mps 754 mmHg 85%
    06:00 +1°C° 0 mm 4 mps 754 mmHg 83%
    07:00 +1°C° 0 mm 5 mps 754 mmHg 82%
    08:00 +1°C° 0 mm 5 mps 755 mmHg 82%
    09:00 +1°C° 0 mm 5 mps 755 mmHg 81%
    10:00 +1°C° 0 mm 5 mps 756 mmHg 80%
    11:00 +1°C° 0 mm 6 mps 756 mmHg 79%
    12:00 +1°C° 0 mm 6 mps 756 mmHg 78%
    13:00 -1°C° 0 mm 6 mps 757 mmHg 78%
    14:00 -1°C° 0 mm 6 mps 757 mmHg 77%
    15:00 -2°C° 0 mm 6 mps 757 mmHg 76%
    16:00 -2°C° 0 mm 6 mps 758 mmHg 75%
    17:00 -3°C° 0 mm 6 mps 758 mmHg 73%
    18:00 -3°C° 0 mm 6 mps 758 mmHg 72%
    19:00 -4°C° 0 mm 6 mps 758 mmHg 66%
    20:00 -5°C° 0 mm 5 mps 759 mmHg 61%
    21:00 -5°C° 0 mm 5 mps 759 mmHg 56%
    22:00 -6°C° 0 mm 5 mps 759 mmHg 53%
    23:00 -6°C° 0 mm 5 mps 759 mmHg 51%

    21 November, Thursday

    Time Temperature Precipitation Wind Pressure Humidity
    00:00 -6°C° 0 mm 5 mps 760 mmHg 48%
    01:00 -6°C° 0 mm 5 mps 760 mmHg 51%
    02:00 -7°C° 0 mm 5 mps 760 mmHg 54%
    03:00 -7°C° 0 mm 5 mps 760 mmHg 56%
    04:00 -7°C° 0 mm 5 mps 760 mmHg 58%
    05:00 -7°C° 0 mm 5 mps 761 mmHg 60%
    06:00 -8°C° 0 mm 5 mps 761 mmHg 61%
    07:00 -8°C° 0 mm 5 mps 761 mmHg 60%
    08:00 -8°C° 0 mm 5 mps 761 mmHg 59%
    09:00 -8°C° 0 mm 5 mps 761 mmHg 58%
    10:00 -8°C° 0 mm 5 mps 762 mmHg 52%
    11:00 -7°C° 0 mm 5 mps 762 mmHg 45%
    12:00 -7°C° 0 mm 4 mps 762 mmHg 39%
    13:00 -7°C° 0 mm 4 mps 762 mmHg 37%
    14:00 -7°C° 0 mm 4 mps 761 mmHg 35%
    15:00 -5°C° 0 mm 4 mps 761 mmHg 33%
    16:00 -7°C° 0 mm 4 mps 761 mmHg 34%
    17:00 -7°C° 0 mm 4 mps 761 mmHg 35%
    18:00 -8°C° 0 mm 4 mps 761 mmHg 36%
    19:00 -8°C° 0 mm 4 mps 761 mmHg 37%
    20:00 -8°C° 0 mm 4 mps 761 mmHg 37%
    21:00 -8°C° 0 mm 4 mps 762 mmHg 38%
    22:00 -9°C° 0 mm 4 mps 762 mmHg 38%
    23:00 -9°C° 0 mm 4 mps 762 mmHg 39%

    22 November, Friday

    Time Temperature Precipitation Wind Pressure Humidity
    00:00 -9°C° 0 mm 4 mps 762 mmHg 39%
    01:00 -8°C° 0 mm 3 mps 762 mmHg 40%
    02:00 -8°C° 0 mm 3 mps 762 mmHg 41%
    03:00 -9°C° 0 mm 3 mps 762 mmHg 42%
    04:00 -9°C° 0 mm 3 mps 762 mmHg 43%
    05:00 -9°C° 0 mm 3 mps 761 mmHg 44%
    06:00 -9°C° 0 mm 3 mps 761 mmHg 45%
    07:00 -9°C° 0 mm 3 mps 761 mmHg 46%
    08:00 -9°C° 0 mm 3 mps 761 mmHg 46%
    09:00 -9°C° 0 mm 3 mps 762 mmHg 47%
    10:00 -8°C° 0 mm 3 mps 762 mmHg 44%
    11:00 -7°C° 0 mm 3 mps 762 mmHg 41%
    12:00 -7°C° 0 mm 3 mps 762 mmHg 38%
    13:00 -6°C° 0 mm 3 mps 761 mmHg 37%
    14:00 -6°C° 0 mm 3 mps 761 mmHg 36%
    15:00 -6°C° 0 mm 3 mps 760 mmHg 36%
    16:00 -6°C° 0 mm 3 mps 760 mmHg 38%
    17:00 -7°C° 0 mm 3 mps 760 mmHg 40%
    18:00 -7°C° 0 mm 3 mps 760 mmHg 42%
    19:00 -7°C° 0 mm 3 mps 760 mmHg 42%
    20:00 -7°C° 0 mm 3 mps 760 mmHg 42%
    21:00 -7°C° 0 mm 3 mps 760 mmHg 43%
    22:00 -7°C° 0 mm 3 mps 760 mmHg 43%
    23:00 -8°C° 0 mm 3 mps 760 mmHg 43%

    23 November, Saturday

    Time Temperature Precipitation Wind Pressure Humidity
    00:00 -8°C° 0 mm 3 mps 760 mmHg 43%
    01:00 -8°C° 0 mm 3 mps 759 mmHg 43%
    02:00 -8°C° 0 mm 3 mps 759 mmHg 44%
    03:00 -8°C° 0 mm 3 mps 759 mmHg 44%
    04:00 -8°C° 0 mm 3 mps 759 mmHg 45%
    05:00 -8°C° 0 mm 3 mps 759 mmHg 45%
    06:00 -8°C° 0 mm 3 mps 759 mmHg 46%
    07:00 -8°C° 0 mm 3 mps 759 mmHg 45%
    08:00 -8°C° 0 mm 3 mps 759 mmHg 45%
    09:00 -8°C° 0 mm 3 mps 758 mmHg 44%
    10:00 -7°C° 0 mm 3 mps 758 mmHg 42%
    11:00 -8°C° 0 mm 4 mps 759 mmHg 39%
    12:00 -7°C° 0 mm 4 mps 759 mmHg 36%
    13:00 -7°C° 0 mm 4 mps 758 mmHg 36%
    14:00 -6°C° 0 mm 3 mps 758 mmHg 35%
    15:00 -6°C° 0 mm 3 mps 757 mmHg 35%
    16:00 -6°C° 0 mm 3 mps 757 mmHg 36%
    17:00 -6°C° 0 mm 3 mps 757 mmHg 38%
    18:00 -7°C° 0 mm 3 mps 757 mmHg 39%
    19:00 -7°C° 0 mm 3 mps 757 mmHg 39%
    20:00 -7°C° 0 mm 3 mps 757 mmHg 40%
    21:00 -7°C° 0 mm 3 mps 757 mmHg 40%
    22:00 -7°C° 0 mm 3 mps 757 mmHg 40%
    23:00 -7°C° 0 mm 3 mps 757 mmHg 40%
    Show more